Wind_Speed
12 12 11 12 12 12 12 13 13 14 15 16 17 17 17 18 18 18 18 19 19 19 20 22 25 26 27 28 29 30 31 33 34 34 34 33 32 31 31 31 30 30
12 12 12 12 12 13 14 14 15 16 16 17 17 17 17 18 18 18 19 19 19 20 22 24 26 27 28 28 29 30 31 33 33 33 32 31 29 29 30 31 30 30
13 13 13 13 14 15 15 16 16 16 17 17 17 18 18 19 19 19 20 20 20 22 24 25 26 27 28 28 29 30 31 33 33 32 31 28 27 27 27 29 29 29
14 14 15 15 15 16 16 16 16 16 17 18 18 19 19 20 20 21 21 22 22 24 25 26 27 27 28 29 29 30 31 33 34 33 30 27 26 26 26 26 27 27
15 15 16 16 17 17 17 17 17 17 18 18 19 20 20 21 22 23 24 24 25 25 26 26 27 28 28 29 30 30 31 32 33 33 31 28 25 24 24 25 26 26
16 16 17 18 18 18 19 18 18 19 19 20 21 22 23 24 25 26 27 27 27 27 26 26 27 28 29 29 30 30 31 33 32 32 31 28 25 23 23 23 24 25
16 16 17 18 19 20 21 21 21 21 22 23 24 25 25 26 27 28 28 28 27 27 26 26 27 28 29 30 30 30 31 32 32 32 30 27 24 22 22 22 23 24
15 16 17 19 21 22 22 23 24 24 25 26 26 26 27 27 27 27 27 27 27 27 26 26 27 29 30 31 31 30 30 31 31 31 30 27 23 21 20 20 20 21
16 16 18 20 21 22 23 24 24 25 26 26 27 27 27 28 28 27 27 27 27 27 27 27 28 29 30 31 32 32 31 30 30 30 28 26 23 21 20 19 20 19
17 18 18 20 22 23 23 24 25 26 26 27 28 29 29 29 29 28 28 27 28 28 27 28 28 29 31 32 33 33 32 30 30 28 27 25 21 20 20 19 19 20
19 19 20 21 22 24 24 25 26 27 28 28 29 29 29 29 29 29 29 28 28 28 28 28 29 30 31 32 33 33 32 30 29 28 27 24 19 18 19 19 19 20
20 21 22 22 23 24 25 26 27 28 29 29 29 29 28 28 29 29 29 29 29 29 29 29 29 30 31 32 33 32 31 30 28 27 26 24 19 17 19 20 20 20
21 22 22 23 24 25 25 27 27 28 28 28 28 27 27 27 27 28 28 29 29 29 29 28 28 29 30 32 32 32 30 28 27 26 25 24 20 17 19 21 21 21
21 21 22 22 23 23 24 24 25 25 26 26 26 26 25 25 26 26 26 27 28 28 28 28 28 28 29 30 30 30 29 28 27 26 24 22 20 17 18 21 22 21
19 20 20 20 21 21 22 22 23 24 25 25 26 26 26 26 26 26 26 26 27 27 27 28 28 29 29 29 29 28 26 26 27 27 24 22 19 16 17 20 22 22
17 17 18 19 20 21 22 23 24 24 25 26 26 26 27 27 27 27 27 27 27 27 27 27 27 28 29 30 30 28 26 25 26 27 25 22 19 16 17 20 22 23
16 17 18 19 20 21 21 22 23 23 24 26 27 27 27 27 27 27 27 28 28 27 27 27 26 27 28 29 30 30 28 26 25 26 25 22 19 17 18 20 21 22
15 16 17 18 18 19 20 20 21 22 23 24 26 27 27 28 27 27 27 28 28 28 28 28 27 27 28 29 30 30 29 27 26 26 25 23 20 19 19 20 21 22
14 15 16 17 17 18 19 20 21 21 22 23 25 26 27 28 28 28 28 28 28 27 27 28 28 28 28 28 29 29 29 27 26 26 26 25 23 21 21 21 21 22
13 14 15 16 17 18 20 21 21 22 23 24 25 26 27 28 29 30 30 29 29 28 28 27 27 28 28 29 29 29 29 28 26 25 26 26 25 24 24 23 22 23
12 13 15 16 17 19 20 21 22 23 24 25 26 27 28 29 30 30 31 31 30 30 29 28 27 27 28 29 30 30 29 28 27 26 25 26 27 26 26 25 25 24
12 13 14 16 17 19 20 21 22 23 24 25 26 27 28 29 30 30 31 32 32 31 31 30 29 28 27 27 29 30 29 28 27 26 25 25 26 27 27 28 28 27
12 14 15 16 17 18 19 21 22 23 24 25 26 27 28 29 30 31 32 32 32 32 31 31 31 30 28 27 27 29 29 28 27 26 26 25 25 26 27 28 30 30
13 15 16 17 18 19 20 21 22 23 25 26 27 29 30 31 31 32 33 34 34 33 32 31 30 31 30 29 28 27 28 28 27 26 26 25 25 25 26 27 29 30
14 15 16 17 18 19 21 22 24 25 26 27 28 29 30 31 31 32 32 33 34 34 34 32 31 30 30 30 29 28 27 27 26 25 25 25 24 24 25 26 27 29
14 15 16 17 19 20 22 24 25 26 28 28 29 30 31 31 31 31 31 32 32 33 34 33 33 32 31 30 29 29 28 27 26 25 24 24 24 24 24 24 25 27
Wind_Direction
294 293 291 288 285 284 286 289 289 288 287 285 286 288 290 292 294 296 296 295 294 294 292 293 296 299 301 302 304 306 308 310 311 310 307 301 296 284 268 261 261 263
291 290 289 286 285 287 289 291 292 290 288 286 287 289 290 292 294 296 297 295 294 292 291 294 297 299 301 302 304 307 309 311 313 312 309 305 300 289 274 265 262 262
294 293 293 291 289 289 291 292 292 289 287 286 286 288 290 292 295 296 297 296 294 293 294 296 298 299 301 304 306 307 310 313 315 315 313 309 301 293 280 269 264 263
299 298 296 294 292 291 292 292 291 288 286 286 287 289 290 292 294 296 297 298 296 296 297 298 299 301 303 306 307 310 312 314 317 318 314 310 304 296 286 273 266 264
298 297 295 296 296 296 296 295 294 291 290 290 290 291 293 294 296 297 298 299 299 299 300 300 301 302 304 306 308 311 313 314 317 318 314 308 305 299 289 278 270 267
293 295 297 299 300 301 301 300 300 298 296 296 296 296 297 297 298 299 300 300 299 300 300 300 300 302 304 306 308 311 312 313 317 318 314 307 301 299 292 281 272 269
291 295 299 301 303 304 304 303 303 302 301 301 301 301 301 300 300 300 300 299 298 298 299 298 299 301 303 305 307 310 311 313 316 317 315 307 299 296 293 285 277 271
290 296 300 302 304 305 306 305 305 305 304 304 304 304 303 302 302 302 301 300 298 299 298 298 299 300 302 304 307 309 311 311 314 317 315 309 299 294 293 289 282 273
290 296 300 303 305 307 308 308 308 307 307 306 306 305 304 304 304 303 302 301 300 299 299 299 299 299 301 303 305 307 309 309 312 315 315 310 299 291 290 289 284 276
293 297 301 304 305 306 307 307 307 307 306 305 304 304 303 303 303 302 301 301 299 298 298 298 298 298 299 301 302 304 306 307 309 312 315 312 301 292 291 287 282 275
298 301 303 303 304 304 305 305 305 304 304 303 302 302 302 301 302 301 300 300 298 296 296 296 296 296 296 297 299 301 303 304 306 309 313 312 303 292 289 286 281 276
300 302 302 302 303 303 303 304 304 303 303 303 303 303 303 303 302 301 300 299 298 297 295 294 293 293 293 294 295 297 299 301 302 305 310 311 303 288 283 281 279 278
301 302 302 303 304 304 305 305 305 306 306 306 306 306 306 306 304 304 302 301 300 298 297 295 293 291 291 292 293 294 295 296 297 300 304 307 303 290 282 279 276 275
303 305 305 306 307 307 308 308 309 310 310 310 311 310 310 310 308 307 306 305 304 302 301 299 296 293 292 291 293 295 294 293 292 293 297 300 300 293 284 280 275 271
308 309 310 311 312 312 313 313 314 314 314 314 314 314 314 313 312 311 310 309 308 306 305 302 300 297 295 293 293 294 294 290 287 286 289 293 295 289 281 278 275 270
314 315 316 316 317 318 319 319 319 319 319 318 317 316 317 316 315 314 313 312 311 309 307 305 302 300 298 297 296 296 296 291 285 281 281 286 290 282 272 272 272 271
320 320 321 322 323 324 324 324 324 324 323 322 321 320 320 318 318 317 315 314 313 312 310 307 304 302 300 300 300 299 299 296 290 283 276 278 285 283 273 269 269 269
325 325 327 328 328 329 329 329 330 330 328 327 325 324 323 322 321 320 318 316 314 313 311 309 306 303 300 300 300 301 301 299 295 290 280 272 274 279 276 270 267 266
333 334 335 336 336 336 337 337 336 335 333 331 329 329 328 326 325 323 321 319 317 315 312 309 307 304 301 299 299 299 301 299 296 294 288 277 269 270 273 272 268 266
344 344 344 345 346 346 346 344 343 342 341 339 337 335 334 332 330 327 325 323 320 318 315 312 308 305 302 300 299 298 299 299 296 293 290 284 274 266 267 271 271 268
356 356 356 356 355 354 352 350 348 347 346 345 343 341 339 337 335 333 330 328 325 323 320 316 311 307 303 301 300 299 298 298 297 294 289 286 281 272 265 265 268 269
8 7 6 3 1 359 356 354 353 352 350 348 347 345 342 340 337 335 333 331 330 328 325 321 316 311 306 302 299 299 299 298 297 295 291 286 282 277 268 262 261 264
16 14 11 9 6 3 0 359 359 357 354 352 351 348 346 343 341 338 336 333 331 330 328 325 321 317 312 307 302 299 299 299 296 294 292 289 284 280 273 265 260 259
22 19 16 14 12 8 7 6 4 2 0 358 355 352 350 348 346 343 340 336 333 331 330 329 327 322 318 313 308 303 301 300 299 295 292 290 287 283 277 270 263 258
28 25 21 18 17 14 13 11 8 7 5 2 358 355 353 352 350 347 344 341 337 335 333 333 332 329 325 320 315 310 306 303 301 298 295 291 289 286 282 276 269 262
33 28 24 21 19 18 16 13 10 8 7 3 360 357 355 354 352 350 347 345 343 341 338 337 336 334 332 328 324 319 314 309 305 301 298 294 291 287 284 280 275 269
Height
3150 3149 3149 3148 3148 3147 3147 3146 3145 3144 3143 3142 3141 3140 3139 3138 3137 3136 3135 3133 3132 3131 3130 3128 3127 3125 3123 3122 3120 3117 3115 3113 3110 3107 3104 3101 3098 3097 3096 3096 3096 3096
3148 3148 3147 3146 3146 3145 3144 3144 3143 3142 3141 3140 3139 3138 3137 3136 3134 3133 3132 3131 3130 3128 3127 3126 3124 3122 3120 3119 3116 3114 3112 3109 3106 3103 3100 3097 3095 3092 3091 3091 3091 3091
3146 3145 3145 3144 3144 3143 3142 3142 3141 3140 3139 3138 3137 3136 3134 3133 3132 3131 3130 3129 3128 3126 3124 3123 3121 3119 3117 3115 3113 3111 3108 3105 3102 3099 3096 3093 3091 3089 3087 3087 3087 3087
3143 3142 3142 3142 3141 3141 3140 3139 3139 3138 3137 3136 3135 3133 3132 3131 3129 3128 3127 3126 3125 3123 3121 3119 3117 3115 3113 3111 3109 3107 3104 3101 3099 3095 3092 3090 3088 3086 3084 3083 3083 3083
3140 3140 3139 3139 3138 3138 3137 3136 3136 3135 3134 3133 3132 3130 3129 3128 3126 3125 3124 3123 3121 3120 3118 3116 3113 3111 3110 3108 3105 3103 3101 3098 3095 3092 3089 3087 3085 3083 3081 3080 3080 3080
3138 3137 3136 3135 3135 3134 3134 3133 3133 3131 3130 3129 3128 3127 3126 3124 3123 3121 3120 3119 3117 3116 3114 3112 3110 3108 3106 3104 3102 3100 3097 3095 3092 3089 3086 3084 3082 3080 3079 3077 3077 3076
3136 3135 3134 3132 3132 3131 3131 3130 3129 3128 3127 3126 3125 3123 3122 3120 3119 3118 3116 3115 3113 3112 3111 3109 3107 3105 3103 3101 3099 3097 3094 3091 3089 3086 3083 3081 3079 3078 3076 3075 3074 3073
3134 3132 3131 3130 3129 3128 3127 3126 3125 3124 3123 3122 3121 3119 3118 3117 3115 3114 3113 3111 3109 3108 3107 3106 3104 3102 3100 3097 3095 3093 3091 3088 3086 3083 3080 3078 3076 3075 3074 3072 3071 3070
3131 3130 3129 3128 3126 3125 3124 3123 3122 3121 3120 3119 3117 3116 3115 3113 3112 3110 3109 3107 3106 3105 3104 3102 3100 3098 3096 3094 3092 3090 3087 3085 3083 3080 3077 3075 3073 3072 3071 3070 3069 3068
3128 3127 3127 3125 3124 3123 3122 3120 3119 3118 3117 3115 3114 3112 3111 3110 3108 3107 3105 3104 3102 3101 3100 3099 3097 3095 3093 3091 3088 3086 3084 3082 3080 3077 3075 3072 3070 3069 3068 3068 3067 3066
3126 3125 3124 3123 3122 3121 3119 3118 3116 3115 3114 3112 3111 3109 3108 3106 3105 3103 3102 3100 3099 3097 3096 3095 3093 3092 3090 3088 3085 3083 3080 3078 3076 3074 3072 3070 3068 3067 3066 3065 3064 3063
3124 3123 3122 3121 3120 3118 3117 3115 3113 3112 3111 3109 3108 3106 3105 3103 3101 3100 3098 3096 3095 3093 3092 3091 3089 3088 3086 3084 3082 3079 3077 3075 3073 3071 3069 3067 3066 3065 3064 3063 3062 3061
3121 3120 3119 3118 3117 3116 3114 3112 3111 3109 3108 3106 3105 3103 3102 3100 3098 3096 3094 3092 3090 3089 3088 3086 3085 3084 3082 3080 3078 3076 3074 3072 3069 3068 3066 3064 3063 3062 3061 3060 3059 3059
3119 3118 3117 3116 3114 3113 3111 3110 3108 3107 3105 3103 3102 3100 3098 3097 3095 3093 3091 3089 3087 3085 3083 3082 3081 3079 3078 3076 3074 3072 3070 3068 3066 3064 3063 3061 3060 3059 3059 3058 3057 3056
3117 3116 3115 3113 3112 3110 3108 3107 3106 3104 3103 3101 3099 3097 3095 3093 3092 3090 3088 3086 3084 3082 3080 3078 3077 3075 3073 3072 3071 3069 3067 3065 3063 3061 3060 3058 3057 3056 3056 3055 3054 3053
3115 3114 3112 3110 3109 3107 3106 3105 3104 3102 3100 3098 3096 3094 3092 3091 3089 3087 3085 3083 3081 3079 3077 3075 3073 3071 3069 3067 3066 3065 3063 3062 3060 3058 3056 3055 3054 3053 3053 3052 3051 3051
3113 3111 3110 3108 3107 3105 3104 3103 3102 3100 3098 3095 3093 3091 3090 3088 3086 3084 3082 3080 3078 3076 3074 3072 3070 3068 3066 3064 3062 3060 3059 3058 3056 3055 3053 3052 3051 3050 3049 3049 3048 3048
3110 3109 3108 3106 3105 3104 3103 3101 3100 3098 3096 3094 3091 3089 3087 3085 3083 3081 3079 3077 3075 3073 3071 3068 3066 3065 3063 3061 3059 3057 3055 3053 3052 3051 3050 3049 3048 3047 3046 3045 3045 3045
3109 3108 3106 3105 3104 3103 3101 3100 3098 3096 3095 3092 3090 3087 3085 3083 3080 3078 3076 3074 3072 3070 3068 3066 3063 3061 3059 3058 3056 3054 3052 3050 3048 3047 3046 3045 3044 3043 3042 3042 3041 3041
3108 3107 3105 3104 3102 3101 3099 3098 3096 3095 3093 3091 3088 3086 3083 3081 3078 3075 3074 3072 3069 3067 3065 3063 3061 3058 3056 3054 3052 3050 3048 3047 3045 3043 3042 3041 3040 3040 3039 3038 3038 3037
3107 3106 3104 3103 3101 3100 3098 3096 3095 3093 3091 3089 3086 3084 3081 3079 3076 3073 3071 3069 3067 3064 3062 3060 3058 3056 3053 3051 3049 3047 3045 3043 3042 3040 3038 3037 3036 3035 3035 3035 3034 3033
3106 3105 3103 3102 3100 3099 3097 3096 3094 3092 3089 3087 3085 3082 3080 3077 3075 3072 3069 3067 3064 3062 3060 3057 3055 3053 3051 3048 3046 3044 3042 3040 3038 3036 3035 3033 3032 3031 3030 3030 3030 3030
3106 3104 3103 3102 3100 3099 3097 3095 3093 3091 3088 3086 3083 3081 3078 3076 3073 3070 3067 3064 3062 3060 3057 3054 3052 3049 3047 3045 3043 3041 3038 3036 3035 3033 3031 3030 3028 3027 3026 3026 3025 3025
3105 3104 3103 3102 3100 3098 3096 3094 3092 3090 3088 3085 3082 3079 3077 3074 3071 3068 3065 3062 3059 3057 3054 3052 3049 3046 3044 3042 3040 3038 3035 3033 3031 3029 3027 3026 3024 3023 3022 3021 3020 3020
3105 3104 3103 3102 3100 3098 3096 3094 3091 3089 3086 3084 3081 3078 3075 3073 3070 3067 3064 3060 3057 3054 3052 3049 3047 3044 3041 3038 3036 3034 3032 3030 3028 3026 3024 3022 3021 3019 3018 3017 3016 3015
3105 3104 3103 3101 3099 3097 3095 3093 3090 3088 3085 3083 3080 3077 3074 3072 3069 3066 3063 3059 3056 3053 3050 3047 3045 3042 3039 3036 3033 3031 3029 3027 3025 3023 3021 3019 3017 3016 3014 3013 3012 3011